Year,Month,Day,Hour,Minute,Value (Times are PST for temperature in C)
2015,03,04,00,00,0.60
2015,03,04,00,01,0.50
2015,03,04,00,02,0.50
2015,03,04,00,03,0.40
2015,03,04,00,04,0.40
2015,03,04,00,05,0.30
2015,03,04,00,06,0.30
2015,03,04,00,07,0.30
2015,03,04,00,08,0.30
2015,03,04,00,09,0.30
2015,03,04,00,10,0.30
2015,03,04,00,11,0.40
2015,03,04,00,12,0.40
2015,03,04,00,13,0.50
2015,03,04,00,14,0.50
2015,03,04,00,15,0.60
2015,03,04,00,16,0.60
2015,03,04,00,17,0.60
2015,03,04,00,18,0.60
2015,03,04,00,19,0.60
2015,03,04,00,20,0.60
2015,03,04,00,21,0.60
2015,03,04,00,22,0.60
2015,03,04,00,23,0.50
2015,03,04,00,24,0.50
2015,03,04,00,25,0.50
2015,03,04,00,26,0.50
2015,03,04,00,27,0.50
2015,03,04,00,28,0.50
2015,03,04,00,29,0.60
2015,03,04,00,30,0.60
2015,03,04,00,31,0.50
2015,03,04,00,32,0.50
2015,03,04,00,33,0.50
2015,03,04,00,34,0.50
2015,03,04,00,35,0.50
2015,03,04,00,36,0.50
2015,03,04,00,37,0.50
2015,03,04,00,38,0.50
2015,03,04,00,39,0.50
2015,03,04,00,40,0.40
2015,03,04,00,41,0.40
2015,03,04,00,42,0.50
2015,03,04,00,43,0.50
2015,03,04,00,44,0.50
2015,03,04,00,45,0.50
2015,03,04,00,46,0.50
2015,03,04,00,47,0.50
2015,03,04,00,48,0.50
2015,03,04,00,49,0.50
2015,03,04,00,50,0.50
2015,03,04,00,51,0.60
2015,03,04,00,52,0.60
2015,03,04,00,53,0.60
2015,03,04,00,54,0.60
2015,03,04,00,55,0.60
2015,03,04,00,56,0.60
2015,03,04,00,57,0.60
2015,03,04,00,58,0.60
2015,03,04,00,59,0.60
2015,03,04,01,00,0.60
2015,03,04,01,01,0.60
2015,03,04,01,02,0.70
2015,03,04,01,03,0.70
2015,03,04,01,04,0.70
2015,03,04,01,05,0.70
2015,03,04,01,06,0.70
2015,03,04,01,07,0.60
2015,03,04,01,08,0.70
2015,03,04,01,09,0.60
2015,03,04,01,10,0.60
2015,03,04,01,11,0.60
2015,03,04,01,12,0.60
2015,03,04,01,13,0.60
2015,03,04,01,14,0.60
2015,03,04,01,15,0.60
2015,03,04,01,16,0.60
2015,03,04,01,17,0.60
2015,03,04,01,18,0.60
2015,03,04,01,19,0.50
2015,03,04,01,20,0.50
2015,03,04,01,21,0.50
2015,03,04,01,22,0.40
2015,03,04,01,23,0.40
2015,03,04,01,24,0.40
2015,03,04,01,25,0.40
2015,03,04,01,26,0.40
2015,03,04,01,27,0.40
2015,03,04,01,28,0.40
2015,03,04,01,29,0.50
2015,03,04,01,30,0.50
2015,03,04,01,31,0.50
2015,03,04,01,32,0.50
2015,03,04,01,33,0.50
2015,03,04,01,34,0.50
2015,03,04,01,35,0.50
2015,03,04,01,36,0.40
2015,03,04,01,37,0.40
2015,03,04,01,38,0.40
2015,03,04,01,39,0.40
2015,03,04,01,40,0.40
2015,03,04,01,41,0.30
2015,03,04,01,42,0.30
2015,03,04,01,43,0.30
2015,03,04,01,44,0.30
2015,03,04,01,45,0.30
2015,03,04,01,46,0.30
2015,03,04,01,47,0.30
2015,03,04,01,48,0.30
2015,03,04,01,49,0.30
2015,03,04,01,50,0.40
2015,03,04,01,51,0.40
2015,03,04,01,52,0.40
2015,03,04,01,53,0.40
2015,03,04,01,54,0.40
2015,03,04,01,55,0.40
2015,03,04,01,56,0.40
2015,03,04,01,57,0.40
2015,03,04,01,58,0.30
2015,03,04,01,59,0.30
2015,03,04,02,00,0.30
2015,03,04,02,01,0.20
2015,03,04,02,02,0.20
2015,03,04,02,03,0.20
2015,03,04,02,04,0.20
2015,03,04,02,05,0.20
2015,03,04,02,06,0.20
2015,03,04,02,07,0.20
2015,03,04,02,08,0.20
2015,03,04,02,09,0.20
2015,03,04,02,10,0.20
2015,03,04,02,11,0.20
2015,03,04,02,12,0.20
2015,03,04,02,13,0.20
2015,03,04,02,14,0.20
2015,03,04,02,15,0.20
2015,03,04,02,16,0.20
2015,03,04,02,17,0.10
2015,03,04,02,18,0.10
2015,03,04,02,19,0.10
2015,03,04,02,20,0.00
2015,03,04,02,21,0.00
2015,03,04,02,22,0.00
2015,03,04,02,23,0.00
2015,03,04,02,24,0.00
2015,03,04,02,25,0.00
2015,03,04,02,26,0.00
2015,03,04,02,27,0.00
2015,03,04,02,28,0.00
2015,03,04,02,29,0.00
2015,03,04,02,30,-0.10
2015,03,04,02,31,-0.10
2015,03,04,02,32,-0.10
2015,03,04,02,33,-0.10
2015,03,04,02,34,0.00
2015,03,04,02,35,0.00
2015,03,04,02,36,0.00
2015,03,04,02,37,0.00
2015,03,04,02,38,0.00
2015,03,04,02,39,0.00
2015,03,04,02,40,0.00
2015,03,04,02,41,0.00
2015,03,04,02,42,0.00
2015,03,04,02,43,0.00
2015,03,04,02,44,0.00
2015,03,04,02,45,0.00
2015,03,04,02,46,0.00
2015,03,04,02,47,0.00
2015,03,04,02,48,0.00
2015,03,04,02,49,0.00
2015,03,04,02,50,0.00
2015,03,04,02,51,0.00
2015,03,04,02,52,0.00
2015,03,04,02,53,-0.10
2015,03,04,02,54,-0.10
2015,03,04,02,55,-0.10
2015,03,04,02,56,-0.10
2015,03,04,02,57,-0.10
2015,03,04,02,58,-0.10
2015,03,04,02,59,-0.20
2015,03,04,03,00,-0.20
2015,03,04,03,01,-0.20
2015,03,04,03,02,-0.20
2015,03,04,03,03,-0.30
2015,03,04,03,04,-0.30
2015,03,04,03,05,-0.30
2015,03,04,03,06,-0.30
2015,03,04,03,07,-0.30
2015,03,04,03,08,-0.30
2015,03,04,03,09,-0.30
2015,03,04,03,10,-0.30
2015,03,04,03,11,-0.30
2015,03,04,03,12,-0.40
2015,03,04,03,13,-0.40
2015,03,04,03,14,-0.40
2015,03,04,03,15,-0.40
2015,03,04,03,16,-0.40
2015,03,04,03,17,-0.40
2015,03,04,03,18,-0.40
2015,03,04,03,19,-0.40
2015,03,04,03,20,-0.40
2015,03,04,03,21,-0.40
2015,03,04,03,22,-0.40
2015,03,04,03,23,-0.40
2015,03,04,03,24,-0.40
2015,03,04,03,25,-0.50
2015,03,04,03,26,-0.50
2015,03,04,03,27,-0.50
2015,03,04,03,28,-0.50
2015,03,04,03,29,-0.50
2015,03,04,03,30,-0.50
2015,03,04,03,31,-0.50
2015,03,04,03,32,-0.50
2015,03,04,03,33,-0.50
2015,03,04,03,34,-0.50
2015,03,04,03,35,-0.40
2015,03,04,03,36,-0.50
2015,03,04,03,37,-0.50
2015,03,04,03,38,-0.50
2015,03,04,03,39,-0.50
2015,03,04,03,40,-0.50
2015,03,04,03,41,-0.50
2015,03,04,03,42,-0.50
2015,03,04,03,43,-0.50
2015,03,04,03,44,-0.60
2015,03,04,03,45,-0.60
2015,03,04,03,46,-0.60
2015,03,04,03,47,-0.60
2015,03,04,03,48,-0.60
2015,03,04,03,49,-0.70
2015,03,04,03,50,-0.70
2015,03,04,03,51,-0.70
2015,03,04,03,52,-0.70
2015,03,04,03,53,-0.70
2015,03,04,03,54,-0.70
2015,03,04,03,55,-0.70
2015,03,04,03,56,-0.70
2015,03,04,03,57,-0.70
2015,03,04,03,58,-0.60
2015,03,04,03,59,-0.60
2015,03,04,04,00,-0.60
2015,03,04,04,01,-0.60
2015,03,04,04,02,-0.50
2015,03,04,05,02,-0.20
2015,03,04,05,03,-0.20
2015,03,04,05,04,-0.20
2015,03,04,05,05,-0.20
2015,03,04,05,06,-0.10
2015,03,04,05,07,-0.10
2015,03,04,05,08,-0.10
2015,03,04,05,09,-0.20
2015,03,04,05,10,-0.20
2015,03,04,05,11,-0.20
2015,03,04,05,12,-0.20
2015,03,04,05,13,-0.20
2015,03,04,05,14,-0.20
2015,03,04,05,15,-0.20
2015,03,04,05,16,-0.20
2015,03,04,05,17,-0.30
2015,03,04,05,18,-0.30
2015,03,04,05,19,-0.30
2015,03,04,05,20,-0.30
2015,03,04,05,21,-0.30
2015,03,04,05,22,-0.30
2015,03,04,05,23,-0.20
2015,03,04,05,24,-0.20
2015,03,04,05,25,-0.20
2015,03,04,05,26,-0.20
2015,03,04,05,27,-0.20
2015,03,04,05,28,-0.20
2015,03,04,05,29,-0.20
2015,03,04,05,30,-0.20
2015,03,04,05,31,-0.20
2015,03,04,05,32,-0.20
2015,03,04,05,33,-0.20
2015,03,04,05,34,-0.30
2015,03,04,05,35,-0.30
2015,03,04,05,36,-0.30
2015,03,04,05,37,-0.30
2015,03,04,05,38,-0.30
2015,03,04,05,39,-0.30
2015,03,04,05,40,-0.30
2015,03,04,05,41,-0.30
2015,03,04,05,42,-0.30
2015,03,04,05,43,-0.30
2015,03,04,05,44,-0.20
2015,03,04,05,45,-0.20
2015,03,04,05,46,-0.20
2015,03,04,05,47,-0.20
2015,03,04,05,48,-0.20
2015,03,04,05,49,-0.20
2015,03,04,05,50,-0.30
2015,03,04,05,51,-0.30
2015,03,04,05,52,-0.30
2015,03,04,05,53,-0.30
2015,03,04,05,54,-0.30
2015,03,04,05,55,-0.30
2015,03,04,05,56,-0.30
2015,03,04,05,57,-0.30
2015,03,04,05,58,-0.30
2015,03,04,05,59,-0.30
2015,03,04,06,00,-0.30
2015,03,04,06,01,-0.30
2015,03,04,06,02,-0.30
2015,03,04,06,03,-0.30
2015,03,04,06,04,-0.30
2015,03,04,06,05,-0.30
2015,03,04,06,06,-0.30
2015,03,04,06,07,-0.30
2015,03,04,06,08,-0.30
2015,03,04,06,09,-0.30
2015,03,04,06,10,-0.30
2015,03,04,06,11,-0.30
2015,03,04,06,12,-0.30
2015,03,04,06,13,-0.30
2015,03,04,06,14,-0.30
2015,03,04,06,15,-0.30
2015,03,04,06,16,-0.30
2015,03,04,06,17,-0.30
2015,03,04,06,18,-0.30
2015,03,04,06,19,-0.40
2015,03,04,06,20,-0.40
2015,03,04,06,21,-0.40
2015,03,04,06,22,-0.50
2015,03,04,06,23,-0.50
2015,03,04,06,24,-0.50
2015,03,04,06,25,-0.60
2015,03,04,06,26,-0.60
2015,03,04,06,27,-0.60
2015,03,04,06,28,-0.60
2015,03,04,06,29,-0.60
2015,03,04,06,30,-0.60
2015,03,04,06,31,-0.60
2015,03,04,06,32,-0.70
2015,03,04,06,33,-0.70
2015,03,04,06,34,-0.70
2015,03,04,06,35,-0.70
2015,03,04,06,36,-0.70
2015,03,04,06,37,-0.80
2015,03,04,06,38,-0.80
2015,03,04,06,39,-0.80
2015,03,04,06,40,-0.80
2015,03,04,06,41,-0.80
2015,03,04,06,42,-0.80
2015,03,04,06,43,-0.80
2015,03,04,06,44,-0.80
2015,03,04,06,45,-0.80
2015,03,04,06,46,-0.80
2015,03,04,06,47,-0.80
2015,03,04,06,48,-0.80
2015,03,04,06,49,-0.70
2015,03,04,06,50,-0.70
2015,03,04,06,51,-0.70
2015,03,04,06,52,-0.70
2015,03,04,06,53,-0.70
2015,03,04,06,54,-0.70
2015,03,04,06,55,-0.70
2015,03,04,06,56,-0.70
2015,03,04,06,57,-0.60
2015,03,04,06,58,-0.60
2015,03,04,06,59,-0.60
2015,03,04,07,00,-0.60
2015,03,04,07,01,-0.60
2015,03,04,07,02,-0.60
2015,03,04,07,03,-0.70
2015,03,04,07,04,-0.70
2015,03,04,07,05,-0.70
2015,03,04,07,06,-0.70
2015,03,04,07,07,-0.70
2015,03,04,07,08,-0.80
2015,03,04,07,09,-0.80
2015,03,04,07,10,-0.80
2015,03,04,07,11,-0.80
2015,03,04,07,12,-0.80
2015,03,04,07,13,-0.90
2015,03,04,07,14,-0.90
2015,03,04,07,15,-0.90
2015,03,04,07,16,-0.80
2015,03,04,07,17,-0.80
2015,03,04,07,18,-0.80
2015,03,04,07,19,-0.80
2015,03,04,07,20,-0.70
2015,03,04,07,21,-0.70
2015,03,04,07,22,-0.70
2015,03,04,07,23,-0.70
2015,03,04,07,24,-0.70
2015,03,04,07,25,-0.70
2015,03,04,07,26,-0.70
2015,03,04,07,27,-0.70
2015,03,04,07,28,-0.70
2015,03,04,07,29,-0.70
2015,03,04,07,30,-0.70
2015,03,04,07,31,-0.70
2015,03,04,07,32,-0.60
2015,03,04,07,33,-0.60
2015,03,04,07,34,-0.60
2015,03,04,07,35,-0.60
2015,03,04,07,36,-0.50
2015,03,04,07,37,-0.50
2015,03,04,07,38,-0.50
2015,03,04,07,39,-0.40
2015,03,04,07,40,-0.40
2015,03,04,07,41,-0.40
2015,03,04,07,42,-0.40
2015,03,04,07,43,-0.30
2015,03,04,07,44,-0.30
2015,03,04,07,45,-0.30
2015,03,04,07,46,-0.20
2015,03,04,07,47,-0.20
2015,03,04,07,48,-0.20
2015,03,04,07,49,-0.20
2015,03,04,07,50,-0.10
2015,03,04,07,51,-0.10
2015,03,04,07,52,-0.10
2015,03,04,07,53,0.00
2015,03,04,07,54,0.00
2015,03,04,07,55,0.10
2015,03,04,07,56,0.10
2015,03,04,07,57,0.10
2015,03,04,07,58,0.20
2015,03,04,07,59,0.20
2015,03,04,08,00,0.20
2015,03,04,08,01,0.20
2015,03,04,08,02,0.20
2015,03,04,08,03,0.30
2015,03,04,08,04,0.30
2015,03,04,08,05,0.30
2015,03,04,08,06,0.30
2015,03,04,08,07,0.30
2015,03,04,08,08,0.30
2015,03,04,08,09,0.40
2015,03,04,08,10,0.40
2015,03,04,08,11,0.40
2015,03,04,08,12,0.40
2015,03,04,08,13,0.40
2015,03,04,08,14,0.50
2015,03,04,08,15,0.50
2015,03,04,08,16,0.50
2015,03,04,08,17,0.60
2015,03,04,08,18,0.60
2015,03,04,08,19,0.60
2015,03,04,08,20,0.60
2015,03,04,08,21,0.70
2015,03,04,08,22,0.70
2015,03,04,08,23,0.70
2015,03,04,08,24,0.70
2015,03,04,08,25,0.80
2015,03,04,08,26,0.80
2015,03,04,08,27,0.80
2015,03,04,08,28,0.80
2015,03,04,08,29,0.80
2015,03,04,08,30,0.90
2015,03,04,08,31,0.90
2015,03,04,08,32,1.00
2015,03,04,08,33,1.00
2015,03,04,08,34,1.10
2015,03,04,08,35,1.10
2015,03,04,08,36,1.20
2015,03,04,08,37,1.20
2015,03,04,08,38,1.30
2015,03,04,08,39,1.30
2015,03,04,08,40,1.30
2015,03,04,08,41,1.40
2015,03,04,08,42,1.40
2015,03,04,08,43,1.40
2015,03,04,08,44,1.40
2015,03,04,08,45,1.40
2015,03,04,08,46,1.50
2015,03,04,08,47,1.50
2015,03,04,08,48,1.50
2015,03,04,08,49,1.60
2015,03,04,08,50,1.60
2015,03,04,08,51,1.60
2015,03,04,08,52,1.60
2015,03,04,08,53,1.60
2015,03,04,08,54,1.70
2015,03,04,08,55,1.70
2015,03,04,08,56,1.80
2015,03,04,08,57,1.80
2015,03,04,08,58,1.80
2015,03,04,08,59,1.90
2015,03,04,09,00,1.90
2015,03,04,09,01,2.00
2015,03,04,09,02,2.10
2015,03,04,09,03,2.20
2015,03,04,09,04,2.30
2015,03,04,09,05,2.40
2015,03,04,09,06,2.50
2015,03,04,09,07,2.60
2015,03,04,09,08,2.60
2015,03,04,09,09,2.70
2015,03,04,09,10,2.70
2015,03,04,09,11,2.70
2015,03,04,09,12,2.70
2015,03,04,09,13,2.80
2015,03,04,09,14,2.80
2015,03,04,09,15,2.80
2015,03,04,09,16,2.80
2015,03,04,09,17,2.80
2015,03,04,09,18,2.80
2015,03,04,09,19,2.90
2015,03,04,09,20,2.90
2015,03,04,09,21,3.00
2015,03,04,09,22,3.10
2015,03,04,09,23,3.20
2015,03,04,09,24,3.30
2015,03,04,09,25,3.30
2015,03,04,09,26,3.40
2015,03,04,09,27,3.50
2015,03,04,09,28,3.60
2015,03,04,09,29,3.70
2015,03,04,09,30,3.80
2015,03,04,09,31,4.00
2015,03,04,09,32,4.10
2015,03,04,09,33,4.20
2015,03,04,09,34,4.30
2015,03,04,09,35,4.30
2015,03,04,09,36,4.30
2015,03,04,09,37,4.30
2015,03,04,09,38,4.30
2015,03,04,09,39,4.40
2015,03,04,09,40,4.40
2015,03,04,09,41,4.30
2015,03,04,09,42,4.30
2015,03,04,09,43,4.30
2015,03,04,09,44,4.40
2015,03,04,09,45,4.40
2015,03,04,09,46,4.40
2015,03,04,09,47,4.40
2015,03,04,09,48,4.50
2015,03,04,09,49,4.50
2015,03,04,09,50,4.50
2015,03,04,09,51,4.50
2015,03,04,09,52,4.50
2015,03,04,09,53,4.60
2015,03,04,09,54,4.60
2015,03,04,09,55,4.60
2015,03,04,09,56,4.70
2015,03,04,09,57,4.70
2015,03,04,09,58,4.80
2015,03,04,09,59,4.80
2015,03,04,10,00,4.90
2015,03,04,10,01,5.10
2015,03,04,10,02,5.10
2015,03,04,10,03,5.20
2015,03,04,10,04,5.10
2015,03,04,10,05,5.00
2015,03,04,10,06,5.00
2015,03,04,10,07,4.90
2015,03,04,10,08,4.80
2015,03,04,10,09,4.90
2015,03,04,10,10,4.90
2015,03,04,10,11,4.90
2015,03,04,10,12,5.00
2015,03,04,10,13,5.00
2015,03,04,10,14,5.00
2015,03,04,10,15,5.10
2015,03,04,10,16,5.20
2015,03,04,10,17,5.30
2015,03,04,10,18,5.40
2015,03,04,10,19,5.50
2015,03,04,10,20,5.60
2015,03,04,10,21,5.80
2015,03,04,10,22,5.80
2015,03,04,10,23,5.90
2015,03,04,10,24,6.00
2015,03,04,10,25,6.00
2015,03,04,10,26,6.00
2015,03,04,10,27,6.10
2015,03,04,10,28,6.10
2015,03,04,10,29,6.20
2015,03,04,10,30,6.30
2015,03,04,10,31,6.40
2015,03,04,10,32,6.50
2015,03,04,10,33,6.60
2015,03,04,10,34,6.70
2015,03,04,10,35,6.70
2015,03,04,10,36,6.80
2015,03,04,10,37,6.80
2015,03,04,10,38,6.80
2015,03,04,10,39,6.70
2015,03,04,10,40,6.60
2015,03,04,10,41,6.50
2015,03,04,10,42,6.40
2015,03,04,10,43,6.40
2015,03,04,10,44,6.40
2015,03,04,10,45,6.50
2015,03,04,10,46,6.40
2015,03,04,10,47,6.40
2015,03,04,10,48,6.30
2015,03,04,10,49,6.20
2015,03,04,10,50,6.10
2015,03,04,10,51,6.00
2015,03,04,10,52,6.10
2015,03,04,10,53,6.10
2015,03,04,10,54,6.20
2015,03,04,10,55,6.30
2015,03,04,10,56,6.40
2015,03,04,10,57,6.40
2015,03,04,10,58,6.50
2015,03,04,10,59,6.50
2015,03,04,11,00,6.60
2015,03,04,11,01,6.60
2015,03,04,11,02,6.60
2015,03,04,11,03,6.70
2015,03,04,11,04,6.70
2015,03,04,11,05,6.70
2015,03,04,11,06,6.60
2015,03,04,11,07,6.60
2015,03,04,11,08,6.50
2015,03,04,11,09,6.60
2015,03,04,11,10,6.60
2015,03,04,11,11,6.60
2015,03,04,11,12,6.60
2015,03,04,11,13,6.60
2015,03,04,11,14,6.60
2015,03,04,11,15,6.70
2015,03,04,11,16,6.70
2015,03,04,11,17,6.70
2015,03,04,11,18,6.80
2015,03,04,11,19,6.80
2015,03,04,11,20,6.70
2015,03,04,11,21,6.60
2015,03,04,11,22,6.50
2015,03,04,11,23,6.40
2015,03,04,11,24,6.30
2015,03,04,11,25,6.20
2015,03,04,11,26,6.20
2015,03,04,11,27,6.20
2015,03,04,11,28,6.30
2015,03,04,11,29,6.40
2015,03,04,11,30,6.50
2015,03,04,11,31,6.50
2015,03,04,11,32,6.60
2015,03,04,11,33,6.60
2015,03,04,11,34,6.70
2015,03,04,11,35,6.80
2015,03,04,11,36,6.90
2015,03,04,11,37,6.90
2015,03,04,11,38,6.90
2015,03,04,11,39,6.90
2015,03,04,11,40,6.90
2015,03,04,11,41,6.90
2015,03,04,11,42,6.90
2015,03,04,11,43,7.00
2015,03,04,11,44,7.00
2015,03,04,11,45,6.90
2015,03,04,11,46,6.80
2015,03,04,11,47,6.80
2015,03,04,11,48,6.80
2015,03,04,11,49,6.80
2015,03,04,11,50,6.80
2015,03,04,11,51,6.80
2015,03,04,11,52,6.80
2015,03,04,11,53,6.70
2015,03,04,11,54,6.70
2015,03,04,11,55,6.60
2015,03,04,11,56,6.60
2015,03,04,11,57,6.60
2015,03,04,11,58,6.70
2015,03,04,11,59,6.70
2015,03,04,12,00,6.70
2015,03,04,12,01,6.70
2015,03,04,12,02,6.80
2015,03,04,12,03,6.80
2015,03,04,12,04,6.80
2015,03,04,12,05,6.80
2015,03,04,12,06,6.80
2015,03,04,12,07,6.70
2015,03,04,12,08,6.70
2015,03,04,12,09,6.70
2015,03,04,12,10,6.80
2015,03,04,12,11,6.80
2015,03,04,12,12,6.80
2015,03,04,12,13,6.80
2015,03,04,12,14,6.80
2015,03,04,12,15,6.80
2015,03,04,12,16,6.70
2015,03,04,12,17,6.70
2015,03,04,12,18,6.70
2015,03,04,12,19,6.70
2015,03,04,12,20,6.70
2015,03,04,12,21,6.70
2015,03,04,12,22,6.70
2015,03,04,12,23,6.80
2015,03,04,12,24,6.80
2015,03,04,12,25,6.80
2015,03,04,12,26,6.80
2015,03,04,12,27,6.80
2015,03,04,12,28,6.80
2015,03,04,12,29,6.90
2015,03,04,12,30,7.00
2015,03,04,12,31,6.90
2015,03,04,12,32,6.90
2015,03,04,12,33,6.90
2015,03,04,12,34,6.90
2015,03,04,12,35,7.00
2015,03,04,12,36,7.00
2015,03,04,12,37,7.10
2015,03,04,12,38,7.00
2015,03,04,12,39,7.00
2015,03,04,12,40,7.00
2015,03,04,12,41,7.10
2015,03,04,12,42,7.10
2015,03,04,12,43,7.10
2015,03,04,12,44,7.10
2015,03,04,12,45,7.10
2015,03,04,12,46,7.00
2015,03,04,12,47,7.00
2015,03,04,12,48,7.00
2015,03,04,12,49,7.10
2015,03,04,12,50,7.10
2015,03,04,12,51,7.10
2015,03,04,12,52,7.10
2015,03,04,12,53,7.10
2015,03,04,12,54,7.00
2015,03,04,12,55,7.10
2015,03,04,12,56,7.10
2015,03,04,12,57,7.10
2015,03,04,12,58,7.20
2015,03,04,12,59,7.20
2015,03,04,13,00,7.20
2015,03,04,13,01,7.20
2015,03,04,13,02,7.20
2015,03,04,13,03,7.10
2015,03,04,13,04,7.10
2015,03,04,13,05,7.10
2015,03,04,13,06,7.10
2015,03,04,13,07,7.10
2015,03,04,13,08,7.10
2015,03,04,13,09,7.10
2015,03,04,13,10,7.10
2015,03,04,13,11,7.10
2015,03,04,13,12,7.10
2015,03,04,13,13,7.00
2015,03,04,13,14,7.00
2015,03,04,13,15,6.90
2015,03,04,13,16,6.90
2015,03,04,13,17,6.90
2015,03,04,13,18,6.90
2015,03,04,13,19,7.00
2015,03,04,13,20,7.00
2015,03,04,13,21,7.10
2015,03,04,13,22,7.10
2015,03,04,13,23,7.10
2015,03,04,13,24,7.20
2015,03,04,13,25,7.20
2015,03,04,13,26,7.20
2015,03,04,13,27,7.20
2015,03,04,13,28,7.20
2015,03,04,13,29,7.30
2015,03,04,13,30,7.30
2015,03,04,13,31,7.30
2015,03,04,13,32,7.30
2015,03,04,13,33,7.40
2015,03,04,13,34,7.40
2015,03,04,13,35,7.50
2015,03,04,13,36,7.60
2015,03,04,13,37,7.60
2015,03,04,13,38,7.70
2015,03,04,13,39,7.70
2015,03,04,13,40,7.70
2015,03,04,13,41,7.80
2015,03,04,13,42,7.80
2015,03,04,13,43,7.90
2015,03,04,13,44,8.00
2015,03,04,13,45,8.00
2015,03,04,13,46,8.10
2015,03,04,13,47,8.00
2015,03,04,13,48,8.00
2015,03,04,13,49,8.00
2015,03,04,13,50,8.00
2015,03,04,13,51,7.90
2015,03,04,13,52,7.90
2015,03,04,13,53,7.90
2015,03,04,13,54,7.90
2015,03,04,13,55,7.80
2015,03,04,13,56,7.80
2015,03,04,13,57,7.80
2015,03,04,13,58,7.80
2015,03,04,13,59,7.80
2015,03,04,14,00,7.70
2015,03,04,14,01,7.60
2015,03,04,14,02,7.60
2015,03,04,14,03,7.60
2015,03,04,14,04,7.50
2015,03,04,14,05,7.50
2015,03,04,14,06,7.50
2015,03,04,14,07,7.50
2015,03,04,14,08,7.60
2015,03,04,14,09,7.60
2015,03,04,14,10,7.50
2015,03,04,14,11,7.50
2015,03,04,14,12,7.50
2015,03,04,14,13,7.50
2015,03,04,14,14,7.50
2015,03,04,14,15,7.40
2015,03,04,14,16,7.30
2015,03,04,14,17,7.30
2015,03,04,14,18,7.30
2015,03,04,14,19,7.40
2015,03,04,14,20,7.40
2015,03,04,14,21,7.40
2015,03,04,14,22,7.40
2015,03,04,14,23,7.50
2015,03,04,14,24,7.50
2015,03,04,14,25,7.50
2015,03,04,14,26,7.40
2015,03,04,14,27,7.40
2015,03,04,14,28,7.40
2015,03,04,14,29,7.40
2015,03,04,14,30,7.40
2015,03,04,14,31,7.40
2015,03,04,14,32,7.40
2015,03,04,14,33,7.40
2015,03,04,14,34,7.30
2015,03,04,14,35,7.30
2015,03,04,14,36,7.30
2015,03,04,14,37,7.30
2015,03,04,14,38,7.30
2015,03,04,14,39,7.30
2015,03,04,14,40,7.30
2015,03,04,14,41,7.30
2015,03,04,14,42,7.40
2015,03,04,14,43,7.40
2015,03,04,14,44,7.40
2015,03,04,14,45,7.40
2015,03,04,14,46,7.40
2015,03,04,14,47,7.30
2015,03,04,14,48,7.30
2015,03,04,14,49,7.30
2015,03,04,14,50,7.30
2015,03,04,14,51,7.30
2015,03,04,14,52,7.30
2015,03,04,14,53,7.30
2015,03,04,14,54,7.30
2015,03,04,14,55,7.30
2015,03,04,14,56,7.30
2015,03,04,14,57,7.30
2015,03,04,14,58,7.30
2015,03,04,14,59,7.30
2015,03,04,15,00,7.30
2015,03,04,15,01,7.30
2015,03,04,15,02,7.30
2015,03,04,15,03,7.30
2015,03,04,15,04,7.30
2015,03,04,15,05,7.30
2015,03,04,15,06,7.30
2015,03,04,15,07,7.30
2015,03,04,15,08,7.30
2015,03,04,15,09,7.30
2015,03,04,15,10,7.30
2015,03,04,15,11,7.30
2015,03,04,15,12,7.30
2015,03,04,15,13,7.30
2015,03,04,15,14,7.40
2015,03,04,15,15,7.40
2015,03,04,15,16,7.40
2015,03,04,15,17,7.40
2015,03,04,15,18,7.40
2015,03,04,15,19,7.40
2015,03,04,15,20,7.50
2015,03,04,15,21,7.50
2015,03,04,15,22,7.50
2015,03,04,15,23,7.50
2015,03,04,15,24,7.60
2015,03,04,15,25,7.60
2015,03,04,15,26,7.60
2015,03,04,15,27,7.60
2015,03,04,15,28,7.60
2015,03,04,15,29,7.60
2015,03,04,15,30,7.60
2015,03,04,15,31,7.60
2015,03,04,15,32,7.60
2015,03,04,15,33,7.60
2015,03,04,15,34,7.70
2015,03,04,15,35,7.70
2015,03,04,15,36,7.80
2015,03,04,15,37,7.80
2015,03,04,15,38,7.80
2015,03,04,15,39,7.80
2015,03,04,15,40,7.80
2015,03,04,15,41,7.80
2015,03,04,15,42,7.80
2015,03,04,15,43,7.70
2015,03,04,15,44,7.70
2015,03,04,15,45,7.70
2015,03,04,15,46,7.60
2015,03,04,15,47,7.60
2015,03,04,15,48,7.60
2015,03,04,15,49,7.60
2015,03,04,15,50,7.60
2015,03,04,15,51,7.60
2015,03,04,15,52,7.60
2015,03,04,15,53,7.60
2015,03,04,15,54,7.60
2015,03,04,15,55,7.60
2015,03,04,15,56,7.60
2015,03,04,15,57,7.60
2015,03,04,15,58,7.60
2015,03,04,15,59,7.70
2015,03,04,16,00,7.70
2015,03,04,16,01,7.70
2015,03,04,16,02,7.80
2015,03,04,16,03,7.80
2015,03,04,16,04,7.80
2015,03,04,16,05,7.80
2015,03,04,16,06,7.80
2015,03,04,16,07,7.80
2015,03,04,16,08,7.80
2015,03,04,16,09,7.80
2015,03,04,16,10,7.80
2015,03,04,16,11,7.80
2015,03,04,16,12,7.90
2015,03,04,16,13,7.80
2015,03,04,16,14,7.90
2015,03,04,16,15,7.90
2015,03,04,16,16,7.80
2015,03,04,16,17,7.80
2015,03,04,16,18,7.80
2015,03,04,16,19,7.80
2015,03,04,16,20,7.80
2015,03,04,16,21,7.80
2015,03,04,16,22,7.80
2015,03,04,16,23,7.80
2015,03,04,16,24,7.80
2015,03,04,16,25,7.80
2015,03,04,16,26,7.80
2015,03,04,16,27,7.70
2015,03,04,16,28,7.70
2015,03,04,16,29,7.70
2015,03,04,16,30,7.60
2015,03,04,16,31,7.60
2015,03,04,16,32,7.50
2015,03,04,16,33,7.50
2015,03,04,16,34,7.50
2015,03,04,16,35,7.40
2015,03,04,16,36,7.40
2015,03,04,16,37,7.40
2015,03,04,16,38,7.40
2015,03,04,16,39,7.40
2015,03,04,16,40,7.40
2015,03,04,16,41,7.40
2015,03,04,16,42,7.40
2015,03,04,16,43,7.30
2015,03,04,16,44,7.30
2015,03,04,16,45,7.30
2015,03,04,16,46,7.30
2015,03,04,16,47,7.30
2015,03,04,16,48,7.30
2015,03,04,16,49,7.30
2015,03,04,16,50,7.30
2015,03,04,16,51,7.30
2015,03,04,16,52,7.30
2015,03,04,16,53,7.30
2015,03,04,16,54,7.20
2015,03,04,16,55,7.20
2015,03,04,16,56,7.20
2015,03,04,16,57,7.20
2015,03,04,16,58,7.20
2015,03,04,16,59,7.20
2015,03,04,17,00,7.20
2015,03,04,17,01,7.20
2015,03,04,17,02,7.20
2015,03,04,17,03,7.20
2015,03,04,17,04,7.20
2015,03,04,17,05,7.20
2015,03,04,17,06,7.20
2015,03,04,17,07,7.20
2015,03,04,17,08,7.20
2015,03,04,17,09,7.10
2015,03,04,17,10,7.10
2015,03,04,17,11,7.10
2015,03,04,17,12,7.00
2015,03,04,17,13,7.00
2015,03,04,17,14,7.00
2015,03,04,17,15,7.00
2015,03,04,17,16,7.00
2015,03,04,17,17,7.00
2015,03,04,17,18,7.00
2015,03,04,17,19,7.00
2015,03,04,17,20,6.90
2015,03,04,17,21,6.90
2015,03,04,17,22,6.90
2015,03,04,17,23,6.90
2015,03,04,17,24,6.90
2015,03,04,17,25,6.90
2015,03,04,17,26,6.80
2015,03,04,17,27,6.80
2015,03,04,17,28,6.80
2015,03,04,17,29,6.80
2015,03,04,17,30,6.80
2015,03,04,17,31,6.80
2015,03,04,17,32,6.80
2015,03,04,17,33,6.80
2015,03,04,17,34,6.80
2015,03,04,17,35,6.80
2015,03,04,17,36,6.80
2015,03,04,17,37,6.80
2015,03,04,17,38,6.70
2015,03,04,17,39,6.70
2015,03,04,17,40,6.70
2015,03,04,17,41,6.70
2015,03,04,17,42,6.70
2015,03,04,17,43,6.70
2015,03,04,17,44,6.70
2015,03,04,17,45,6.70
2015,03,04,17,46,6.70
2015,03,04,17,47,6.70
2015,03,04,17,48,6.60
2015,03,04,17,49,6.60
2015,03,04,17,50,6.60
2015,03,04,17,51,6.60
2015,03,04,17,52,6.60
2015,03,04,17,53,6.60
2015,03,04,17,54,6.60
2015,03,04,17,55,6.60
2015,03,04,17,56,6.60
2015,03,04,17,57,6.60
2015,03,04,17,58,6.60
2015,03,04,17,59,6.60
2015,03,04,18,00,6.60
2015,03,04,18,01,6.70
2015,03,04,18,02,6.70
2015,03,04,18,03,6.70
2015,03,04,18,04,6.70
2015,03,04,18,05,6.70
2015,03,04,18,06,6.70
2015,03,04,18,07,6.70
2015,03,04,18,08,6.70
2015,03,04,18,09,6.70
2015,03,04,18,10,6.70
2015,03,04,18,11,6.70
2015,03,04,18,12,6.70
2015,03,04,18,13,6.70
2015,03,04,18,14,6.70
2015,03,04,18,15,6.70
2015,03,04,18,16,6.70
2015,03,04,18,17,6.70
2015,03,04,18,18,6.70
2015,03,04,18,19,6.70
2015,03,04,18,20,6.70
2015,03,04,18,21,6.70
2015,03,04,18,22,6.70
2015,03,04,18,23,6.70
2015,03,04,18,24,6.70
2015,03,04,18,25,6.60
2015,03,04,18,26,6.60
2015,03,04,18,27,6.60
2015,03,04,18,28,6.50
2015,03,04,18,29,6.50
2015,03,04,18,30,6.40
2015,03,04,18,31,6.30
2015,03,04,18,32,6.30
2015,03,04,18,33,6.30
2015,03,04,18,34,6.20
2015,03,04,18,35,6.20
2015,03,04,18,36,6.20
2015,03,04,18,37,6.20
2015,03,04,18,38,6.10
2015,03,04,18,39,6.10
2015,03,04,18,40,6.10
2015,03,04,18,41,6.10
2015,03,04,18,42,6.00
2015,03,04,18,43,6.00
2015,03,04,18,44,5.90
2015,03,04,18,45,5.90
2015,03,04,18,46,5.80
2015,03,04,18,47,5.80
2015,03,04,18,48,5.70
2015,03,04,18,49,5.70
2015,03,04,18,50,5.60
2015,03,04,18,51,5.50
2015,03,04,18,52,5.50
2015,03,04,18,53,5.40
2015,03,04,18,54,5.40